SAS456 ESGG-EKCH

Flight info

Callsign SAS456
Flight time 0h 27m
Altitude 19000
Route TOPLA L996 ERNOV
Aircraft CRJ9/M-SDFGIRWY/S

Departure

Time 2026-05-06 18:56
Airport Göteborg Landvetter Airport (ESGG)

Arrival

Time 2026-05-06 19:23
Airport Copenhagen Kastrup Airport (EKCH)
Time Latitude Longitude Altitude Speed Heading
2026-05-06 18:34 57.66973 12.29495 514 ft 0 kts 116°
2026-05-06 18:46 57.66981 12.29467 514 ft 4 kts 116°
2026-05-06 18:47 57.66989 12.29432 514 ft 4 kts 114°
2026-05-06 18:47 57.66996 12.29389 514 ft 4 kts 88°
2026-05-06 18:47 57.66987 12.29360 514 ft 4 kts 28°
2026-05-06 18:47 57.66966 12.29340 514 ft 4 kts 26°
2026-05-06 18:48 57.66948 12.29324 514 ft 0 kts 26°
2026-05-06 18:50 57.66957 12.29331 514 ft 3 kts 19°
2026-05-06 18:51 57.66979 12.29315 514 ft 5 kts 306°
2026-05-06 18:51 57.67001 12.29236 514 ft 8 kts 296°
2026-05-06 18:51 57.67043 12.29189 514 ft 7 kts 11°
2026-05-06 18:51 57.67091 12.29228 514 ft 8 kts 27°
2026-05-06 18:52 57.67143 12.29276 514 ft 9 kts 26°
2026-05-06 18:52 57.67201 12.29329 514 ft 11 kts 25°
2026-05-06 18:52 57.67272 12.29393 514 ft 12 kts 26°
2026-05-06 18:52 57.67346 12.29461 514 ft 12 kts 25°
2026-05-06 18:53 57.67413 12.29463 514 ft 10 kts 307°
2026-05-06 18:53 57.67444 12.29353 514 ft 9 kts 296°
2026-05-06 18:53 57.67461 12.29269 514 ft 3 kts 271°
2026-05-06 18:53 57.67461 12.29258 513 ft 0 kts 262°
2026-05-06 18:54 57.67457 12.29215 513 ft 7 kts 261°
2026-05-06 18:54 57.67451 12.29107 513 ft 9 kts 262°
2026-05-06 18:54 57.67424 12.29020 513 ft 8 kts 216°
2026-05-06 18:54 57.67398 12.28994 513 ft 0 kts 205°
2026-05-06 18:55 57.67374 12.28973 513 ft 15 kts 205°
2026-05-06 18:55 57.67053 12.28680 512 ft 90 kts 206°
2026-05-06 18:55 57.66278 12.27968 509 ft 154 kts 207°
2026-05-06 18:56 57.65200 12.27038 924 ft 177 kts 207°
2026-05-06 18:56 57.64102 12.26092 1897 ft 172 kts 208°
2026-05-06 18:56 57.63018 12.25126 2767 ft 174 kts 208°
2026-05-06 18:56 57.61934 12.24152 3629 ft 172 kts 207°
2026-05-06 18:57 57.60801 12.23424 4377 ft 178 kts 186°
2026-05-06 18:57 57.59495 12.23222 4778 ft 193 kts 186°
2026-05-06 18:57 57.58175 12.23006 4930 ft 189 kts 186°
2026-05-06 18:57 57.56857 12.22798 4988 ft 191 kts 185°
2026-05-06 18:58 57.55502 12.22593 5119 ft 200 kts 185°
2026-05-06 18:58 57.54111 12.22480 5807 ft 201 kts 176°
2026-05-06 18:58 57.52717 12.22745 6460 ft 203 kts 174°
2026-05-06 18:58 57.51310 12.23073 7059 ft 205 kts 174°
2026-05-06 18:59 57.49902 12.23530 7630 ft 207 kts 166°
2026-05-06 18:59 57.48482 12.24248 8069 ft 220 kts 166°
2026-05-06 18:59 57.46904 12.24961 8311 ft 246 kts 169°
2026-05-06 18:59 57.45160 12.25558 8753 ft 264 kts 171°
2026-05-06 19:00 57.43309 12.26101 9387 ft 274 kts 172°
2026-05-06 19:00 57.41367 12.26639 9810 ft 294 kts 173°
2026-05-06 19:00 57.39276 12.27198 10140 ft 313 kts 173°
2026-05-06 19:00 57.37820 12.27562 10394 ft 324 kts 174°
2026-05-06 19:01 57.34789 12.28322 11269 ft 332 kts 173°
2026-05-06 19:01 57.32482 12.28928 11958 ft 338 kts 173°
2026-05-06 19:01 57.30132 12.29564 12638 ft 344 kts 173°
2026-05-06 19:01 57.27747 12.30200 13342 ft 349 kts 173°
2026-05-06 19:02 57.25359 12.30832 14008 ft 354 kts 174°
2026-05-06 19:02 57.22884 12.31489 14687 ft 356 kts 174°
2026-05-06 19:02 57.20417 12.32146 15362 ft 359 kts 174°
2026-05-06 19:02 57.17931 12.32805 16035 ft 363 kts 174°
2026-05-06 19:03 57.15423 12.33476 16693 ft 366 kts 175°
2026-05-06 19:03 57.12895 12.34137 17340 ft 369 kts 175°
2026-05-06 19:03 57.10378 12.34750 17960 ft 372 kts 176°
2026-05-06 19:03 57.07803 12.35393 18492 ft 376 kts 176°
2026-05-06 19:04 57.05172 12.36045 18744 ft 387 kts 176°
2026-05-06 19:04 57.02501 12.36710 18849 ft 389 kts 176°
2026-05-06 19:04 56.99809 12.37374 18907 ft 392 kts 176°
2026-05-06 19:04 56.97091 12.38048 18938 ft 396 kts 176°
2026-05-06 19:05 56.94367 12.38722 18944 ft 394 kts 176°
2026-05-06 19:05 56.91655 12.39392 18946 ft 392 kts 176°
2026-05-06 19:05 56.88956 12.40059 18942 ft 391 kts 176°
2026-05-06 19:05 56.86266 12.40723 18952 ft 389 kts 176°
2026-05-06 19:06 56.83586 12.41374 18952 ft 388 kts 176°
2026-05-06 19:06 56.80913 12.42034 18953 ft 387 kts 176°
2026-05-06 19:06 56.78247 12.42686 18958 ft 386 kts 176°
2026-05-06 19:06 56.75586 12.43337 18936 ft 385 kts 176°
2026-05-06 19:07 56.72928 12.43987 18949 ft 386 kts 176°
2026-05-06 19:07 56.71122 12.44431 18954 ft 388 kts 176°
2026-05-06 19:07 56.67558 12.45293 18962 ft 392 kts 176°
2026-05-06 19:07 56.64844 12.45955 18962 ft 395 kts 176°
2026-05-06 19:08 56.62114 12.46621 18965 ft 397 kts 176°
2026-05-06 19:08 56.59367 12.47282 18964 ft 399 kts 176°
2026-05-06 19:08 56.56601 12.47955 18849 ft 402 kts 176°
2026-05-06 19:08 56.53859 12.48619 18359 ft 392 kts 176°
2026-05-06 19:09 56.51187 12.49262 17765 ft 383 kts 176°
2026-05-06 19:09 56.48578 12.49894 17203 ft 374 kts 175°
2026-05-06 19:09 56.46032 12.50505 16687 ft 365 kts 175°
2026-05-06 19:09 56.43545 12.51105 16220 ft 357 kts 175°
2026-05-06 19:10 56.41105 12.51692 15746 ft 351 kts 175°
2026-05-06 19:10 56.38712 12.52262 15380 ft 344 kts 175°
2026-05-06 19:10 56.36341 12.52827 15071 ft 343 kts 175°
2026-05-06 19:10 56.33981 12.53391 14772 ft 343 kts 175°
2026-05-06 19:11 56.31616 12.53954 14482 ft 343 kts 175°
2026-05-06 19:11 56.29245 12.54518 14093 ft 345 kts 174°
2026-05-06 19:11 56.26869 12.55084 13501 ft 343 kts 174°
2026-05-06 19:11 56.24510 12.55644 12889 ft 341 kts 174°
2026-05-06 19:12 56.22165 12.56201 12276 ft 339 kts 174°
2026-05-06 19:12 56.19838 12.56753 11680 ft 336 kts 174°
2026-05-06 19:12 56.17537 12.57274 11262 ft 328 kts 177°
2026-05-06 19:12 56.15334 12.56894 11067 ft 312 kts 193°
2026-05-06 19:13 56.13274 12.55950 10884 ft 300 kts 197°
2026-05-06 19:13 56.11298 12.54920 10652 ft 292 kts 198°
2026-05-06 19:13 56.09368 12.53890 10394 ft 287 kts 198°
2026-05-06 19:13 56.07467 12.52919 10138 ft 282 kts 197°
2026-05-06 19:14 56.05588 12.52012 9886 ft 278 kts 196°
2026-05-06 19:14 56.03719 12.51267 9587 ft 275 kts 185°
2026-05-06 19:14 56.02471 12.51542 9390 ft 275 kts 161°
2026-05-06 19:14 56.00812 12.53188 9092 ft 273 kts 148°
2026-05-06 19:15 55.99232 12.55064 8736 ft 272 kts 146°
2026-05-06 19:15 55.97673 12.56964 8394 ft 271 kts 145°
2026-05-06 19:15 55.96124 12.58864 8055 ft 270 kts 145°
2026-05-06 19:15 55.94575 12.60763 7660 ft 270 kts 144°
2026-05-06 19:16 55.93021 12.62664 7249 ft 271 kts 144°
2026-05-06 19:16 55.91477 12.64529 6910 ft 263 kts 144°
2026-05-06 19:16 55.89983 12.66275 6576 ft 250 kts 144°
2026-05-06 19:16 55.88561 12.67933 6220 ft 239 kts 144°
2026-05-06 19:17 55.87204 12.69503 5926 ft 226 kts 144°
2026-05-06 19:17 55.85913 12.70977 5629 ft 215 kts 144°
2026-05-06 19:17 55.84679 12.72387 5327 ft 210 kts 144°
2026-05-06 19:17 55.83442 12.73802 4941 ft 212 kts 145°
2026-05-06 19:18 55.82202 12.75240 4537 ft 211 kts 146°
2026-05-06 19:18 55.80852 12.76007 4286 ft 200 kts 175°
2026-05-06 19:18 55.79507 12.76116 4109 ft 187 kts 175°
2026-05-06 19:18 55.78239 12.76234 3833 ft 179 kts 174°
2026-05-06 19:19 55.77025 12.76335 3477 ft 174 kts 175°
2026-05-06 19:19 55.75811 12.76421 3027 ft 174 kts 175°
2026-05-06 19:19 55.74612 12.76498 2676 ft 168 kts 175°
2026-05-06 19:19 55.73473 12.76587 2376 ft 160 kts 175°
2026-05-06 19:20 55.72379 12.76668 2148 ft 158 kts 175°
2026-05-06 19:20 55.71232 12.76761 2088 ft 168 kts 175°
2026-05-06 19:20 55.70046 12.76867 1995 ft 175 kts 175°
2026-05-06 19:20 55.68806 12.76726 1718 ft 179 kts 198°
2026-05-06 19:21 55.67873 12.75473 1533 ft 159 kts 223°
2026-05-06 19:21 55.67143 12.74098 1339 ft 146 kts 224°
2026-05-06 19:21 55.66455 12.72856 1114 ft 139 kts 220°
2026-05-06 19:21 55.65752 12.71700 871 ft 136 kts 218°
2026-05-06 19:22 55.65050 12.70589 741 ft 135 kts 216°
2026-05-06 19:22 55.64320 12.69510 556 ft 137 kts 216°
2026-05-06 19:22 55.63615 12.68410 381 ft 133 kts 217°
2026-05-06 19:22 55.62937 12.67361 159 ft 127 kts 217°
2026-05-06 19:23 55.62273 12.66337 20 ft 122 kts 216°
2026-05-06 19:23 55.61784 12.65586 16 ft 56 kts 221°
2026-05-06 19:23 55.61629 12.65325 14 ft 20 kts 236°
2026-05-06 19:23 55.61603 12.65110 15 ft 17 kts 279°
2026-05-06 19:24 55.61654 12.64932 15 ft 15 kts 311°
2026-05-06 19:24 55.61738 12.64810 15 ft 16 kts 336°
2026-05-06 19:24 55.61846 12.64791 15 ft 16 kts 12°
2026-05-06 19:24 55.61926 12.64857 16 ft 7 kts 33°
2026-05-06 19:25 55.61941 12.64874 15 ft 0 kts 33°
2026-05-06 19:26 55.61947 12.64880 15 ft 4 kts 33°
2026-05-06 19:26 55.61988 12.64927 17 ft 10 kts 33°
2026-05-06 19:26 55.62057 12.65006 16 ft 13 kts 33°
2026-05-06 19:27 55.62138 12.65100 16 ft 15 kts 33°
2026-05-06 19:27 55.62230 12.65193 15 ft 16 kts 12°
2026-05-06 19:27 55.62341 12.65205 16 ft 16 kts 359°
2026-05-06 19:27 55.62444 12.65200 15 ft 15 kts 358°
2026-05-06 19:28 55.62550 12.65197 15 ft 16 kts 359°
2026-05-06 19:28 55.62651 12.65191 11 ft 13 kts 356°
2026-05-06 19:28 55.62723 12.65183 15 ft 5 kts 356°
2026-05-06 19:28 55.62730 12.65182 16 ft 0 kts 356°